EW4993 Weather Reports


time (UTC)temp
F
wind
direction
speed
knots
gust
knots
rain 1hr
in
rain 24hr
in
rain mn
in
humidity
%
barometer
mb
20240418164538 80 215 7.0 13.0 0.00 0.00 0.00 80 988.5
20240418163026 79 236 7.0 12.2 0.00 0.00 0.00 81 988.7
20240418161512 79 233 7.0 12.2 0.00 0.00 0.00 82 988.7
20240418160058 78 207 7.0 9.6 0.00 0.00 0.00 84 988.6
20240418154552 77 209 7.8 12.2 0.00 0.00 0.00 85 988.4
20240418153038 76 246 8.7 14.8 0.00 0.00 0.00 87 988.3
20240418151527 76 225 9.6 13.9 0.00 0.00 0.00 88 988.3
20240418150009 75 211 6.1 10.4 0.00 0.00 0.00 89 988.1
20240418144508 74 219 6.1 8.7 0.00 0.00 0.00 90 988.1
20240418143050 74 219 7.0 11.3 0.00 0.00 0.00 90 988.2
20240418141552 73 256 6.1 10.4 0.00 0.00 0.00 91 988.3
20240418140035 73 227 7.0 12.2 0.00 0.00 0.00 91 988.3
20240418134539 72 208 6.1 9.6 0.00 0.00 0.00 92 988.0
20240418133020 72 208 7.0 10.4 0.00 0.00 0.00 92 988.0
20240418131512 72 195 5.2 8.7 0.00 0.00 0.00 92 987.8
20240418130054 72 206 7.0 12.2 0.00 0.00 0.00 92 987.6
20240418124554 71 193 4.3 8.7 0.00 0.00 0.00 92 987.6
20240418123036 71 213 5.2 7.0 0.00 0.00 0.00 93 987.4
20240418121535 71 208 3.5 7.0 0.00 0.00 0.00 93 987.2
20240418120017 71 198 4.3 8.7 0.00 0.00 0.00 93 987.2
20240418114519 71 200 3.5 7.8 0.00 0.00 0.00 93 987.0
20240418113116 71 198 5.2 8.7 0.00 0.00 0.00 93 987.0
20240418111600 71 211 4.3 7.8 0.00 0.00 0.00 92 987.0
20240418110105 71 198 4.3 8.7 0.00 0.00 0.00 92 987.0
20240418104541 71 224 4.3 7.8 0.00 0.00 0.00 92 987.1
20240418103048 71 210 5.2 9.6 0.00 0.00 0.00 92 986.9
20240418101526 71 198 5.2 9.6 0.00 0.00 0.00 92 986.9
20240418100022 71 213 4.3 8.7 0.00 0.00 0.00 92 987.0
20240418094504 71 200 1.7 7.8 0.00 0.00 0.00 92 986.8
20240418093004 71 187 3.5 8.7 0.00 0.00 0.00 92 986.8
20240418091544 70 184 3.5 7.8 0.00 0.00 0.00 92 986.9
20240418090104 70 188 4.3 7.0 0.00 0.00 0.00 92 987.0
20240418084526 70 186 0.9 3.5 0.00 0.00 0.00 92 987.1
20240418083027 70 227 0.0 1.7 0.00 0.00 0.00 92 987.2
20240418081513 70 228 0.0 0.0 0.00 0.00 0.00 92 987.5
20240418080013 70 228 0.0 0.0 0.00 0.00 0.00 92 987.3
20240418074550 70 229 0.0 0.0 0.00 0.00 0.00 91 987.6
20240418073050 70 229 0.0 0.0 0.00 0.00 0.00 91 987.7
20240418071535 70 229 0.0 0.0 0.00 0.00 0.00 91 987.7
20240418070055 70 229 0.0 0.0 0.00 0.00 0.00 90 987.8
20240418064509 71 229 0.0 1.7 0.00 0.00 0.00 90 987.9
20240418063007 71 229 0.0 4.3 0.00 0.00 0.00 89 987.9
20240418061550 72 231 3.5 7.8 0.00 0.00 0.00 89 987.8
20240418060048 72 232 5.2 8.7 0.00 0.00 0.00 89 987.7
20240418054526 72 211 5.2 8.7 0.00 0.00 0.00 89 987.4
20240418053025 72 213 4.3 8.7 0.00 0.00 0.00 89 987.2
20240418051506 72 213 4.3 10.4 0.00 0.00 0.00 89 987.1
20240418050006 72 198 6.1 10.4 0.00 0.00 0.00 89 987.2
20240418044547 73 160 7.8 11.3 0.00 0.00 0.00 88 986.6
20240418043048 73 181 7.0 10.4 0.00 0.00 0.00 88 987.1
20240418041526 73 162 5.2 8.7 0.00 0.00 0.00 87 987.4
20240418040025 73 167 4.3 9.6 0.00 0.00 0.00 87 987.6
20240418034507 73 186 5.2 8.7 0.00 0.00 0.00 87 988.0
20240418033006 73 177 6.1 8.7 0.00 0.00 0.00 86 988.0
20240418031611 73 175 7.0 10.4 0.00 0.00 0.00 85 987.7
20240418030048 74 174 7.0 13.0 0.00 0.00 0.00 85 987.6
20240418024531 74 181 5.2 9.6 0.00 0.00 0.00 84 987.8
20240418023029 74 184 7.0 11.3 0.00 0.00 0.00 84 987.2
20240418021511 74 203 8.7 13.9 0.00 0.00 0.00 84 987.1
20240418020013 74 181 6.1 10.4 0.00 0.00 0.00 85 987.1
20240418014552 74 169 7.0 11.3 0.00 0.00 0.00 86 986.8
20240418013049 74 187 5.2 7.0 0.00 0.00 0.00 87 987.0
20240418011531 75 165 4.3 6.1 0.00 0.00 0.00 86 987.1
20240418010030 75 173 4.3 7.0 0.00 0.00 0.00 84 987.1
20240418004512 76 169 3.5 7.0 0.00 0.00 0.00 83 987.1
20240418003025 77 173 4.3 7.0 0.00 0.00 0.00 83 987.2
20240418001553 77 171 4.3 7.8 0.00 0.00 0.00 83 987.1
20240418000053 76 172 3.5 7.8 0.00 0.00 0.00 86 987.2
20240417234535 77 92 0.0 1.7 0.00 0.00 0.00 88 987.2
20240417233034 77 86 2.6 7.0 0.00 0.00 0.00 88 986.9
20240417231522 77 80 2.6 4.3 0.00 0.00 0.00 88 986.8
20240417230017 77 136 0.0 0.0 0.00 0.00 0.00 87 986.8
20240417224608 78 136 0.0 0.0 0.00 0.00 0.00 86 986.9
20240417223105 78 136 0.0 0.0 0.00 0.00 0.00 85 987.0
20240417221541 78 136 0.0 0.0 0.00 0.00 0.00 85 986.9
20240417220043 78 138 0.0 1.7 0.00 0.00 0.00 84 986.8
20240417214534 78 148 0.0 6.1 0.00 0.00 0.00 84 986.9
20240417213029 78 164 0.0 2.6 0.00 0.00 0.00 84 986.9
20240417211601 78 165 0.0 5.2 0.00 0.00 0.00 83 987.4
20240417210000 77 189 3.5 6.1 0.00 0.00 0.00 83 987.7
20240417204543 77 182 4.3 7.0 0.00 0.00 0.00 84 987.7
20240417203053 77 153 5.2 7.8 0.00 0.00 0.00 84 987.5
20240417201523 77 157 5.2 11.3 0.00 0.00 0.00 84 987.8
20240417200031 78 194 8.7 12.2 0.00 0.00 0.00 83 988.1
20240417194505 79 171 8.7 13.9 0.00 0.00 0.00 82 987.9
20240417193009 79 173 9.6 14.8 0.00 0.00 0.00 82 987.8
20240417191547 80 159 10.4 15.6 0.00 0.00 0.00 82 987.7
20240417190052 80 134 7.8 11.3 0.00 0.00 0.00 82 987.9
20240417184524 80 138 3.5 7.8 0.00 0.00 0.00 82 988.3
20240417183020 79 118 3.5 8.7 0.00 0.00 0.00 85 988.5
20240417181615 79 133 0.0 0.0 0.00 0.00 0.00 86 988.7
20240417180118 78 152 0.0 6.1 0.00 0.00 0.00 88 989.1
20240417174535 77 178 0.0 0.0 0.00 0.00 0.00 90 989.3
20240417173032 76 158 0.0 0.0 0.00 0.00 0.00 91 989.4
20240417171512 75 158 0.0 0.0 0.00 0.00 0.00 92 989.4
20240417170013 75 130 0.0 0.0 0.00 0.00 0.00 93 989.6